Location: A�t Bou Chrif
(32.7193°N, 5.2385°W)
Time: 00:45:03
(UTC+00:00)

Landsat 7 - Pass Details

Date: 08 August 2020
Orbit: 701 x 703 km, 98.1° (Epoch: 18 September)

Event Time Altitude Azimuth Distance (km) Brightness Sun altitude
Exits shadow 21:08:59 39° 69° (ENE) 1,051 4.4 -22.3°
Drops below altitude 10° 21:13:16 10° 5° (N) 2,174 6.8 -23.0°
Sets 21:15:39 0° 358° (N) 3,095 7.7 -23.4°
